• Processing (Info)

  • MPEC 2013-V82 : 2013 VP13

    The following Minor Planet Electronic Circular may be linked-to from your own Web pages, but must not otherwise be redistributed electronically.

    A form allowing access to any MPEC is at the bottom of this page.


    Read MPEC 2013-V81 Read MPEC 2013-V83


    M.P.E.C. 2013-V82                                Issued 2013 Nov. 12, 17:46 UT
    
         The Minor Planet Electronic Circulars contain information on unusual
             minor planets and routine data on comets.  They are published
       on behalf of Commission 20 of the International Astronomical Union by the
              Minor Planet Center, Smithsonian Astrophysical Observatory,
                              Cambridge, MA 02138, U.S.A.
    
                 Prepared using the Tamkin Foundation Computer Network
    
                                  MPC@CFA.HARVARD.EDU
                URL https://www.minorplanetcenter.net/    ISSN 1523-6714
    
                                       2013 VP13
    
    Observations:
         K13V13P* C2013 11 11.30498 03 02 02.71 +36 47 34.9          22.7 VqEV082G96
         K13V13P  C2013 11 11.30572 03 02 02.84 +36 47 35.3          21.6 VqEV082G96
         K13V13P  C2013 11 11.30647 03 02 02.97 +36 47 35.2          22.5 VqEV082G96
         K13V13P  C2013 11 11.30721 03 02 03.12 +36 47 35.3          22.0 VqEV082G96
         K13V13P  C2013 11 11.30795 03 02 03.24 +36 47 35.4          21.7 VqEV082G96
         K13V13P KC2013 11 11.48953 03 02 34.25 +36 46 47.5          21.2 RoEV082291
         K13V13P KC2013 11 11.49485 03 02 35.25 +36 46 46.1          20.6 RoEV082291
         K13V13P KC2013 11 11.50020 03 02 36.26 +36 46 43.4          21.4 RoEV082291
         K13V13P KC2013 11 12.26155 03 05 08.55 +36 45 49.0          21.6 RoEV082291
         K13V13P KC2013 11 12.26705 03 05 09.27 +36 45 48.8          22.0 RoEV082291
    
    Observer details:
    291 LPL/Spacewatch II.  Observers T. H. Bressi, R. A. Mastaler.  1.8-m f/2.7
        reflector + CCD.
    G96 Mt. Lemmon Survey.  Observer A. Boattini.  Measurers A. Boattini,
        E. J. Christensen, A. R. Gibbs, A. D. Grauer, R. E. Hill, J. A. Johnson,
        R. A. Kowalski, S. M. Larson, F. C. Shelly.  1.5-m reflector + CCD.
    
    Orbital elements:
    2013 VP13                                                Earth MOID = 0.0018 AU
    Epoch 2013 Nov. 4.0 TT = JDT 2456600.5                  MPC
    M  13.53327              (2000.0)            P               Q
    n   0.36891681     Peri.  323.37272     +0.99505012     +0.08762483
    a   1.9253828      Node    31.69700     -0.05582349     +0.88311078
    e   0.5209220      Incl.    5.11820     -0.08221310     +0.46090914
    P   2.67           H   26.1           G   0.15           U   8
    Residuals in seconds of arc
    131111 G96  0.3-  0.5-    131111 G96  0.3+  0.3+    131112 291  0.3+  0.1-
    131111 G96  0.2-  0.0     131111 291  0.1-  0.2-    131112 291  0.3-  0.1+
    131111 G96  0.1-  0.0     131111 291  0.0   0.4+
    131111 G96  0.3+  0.1+    131111 291  0.1+  0.2-
    
    Ephemeris:
    2013 VP13                a,e,i = 1.93, 0.52, 5                   q = 0.9224
    Date    TT    R. A. (2000) Decl.     Delta      r     Elong.  Phase     V
    2013 10 13    16 29 47.6 -36 07 13   0.09949 0.9414    53.1   122.1    26.0
    ...
    2013 10 28    21 04 59.2 -04 35 48   0.01548 0.9971   102.5    76.6    19.7
    ...
    2013 11 05    02 23 23.0 +36 13 20   0.05009 1.0385   159.0    20.0    20.7
    ...
    2013 11 11    03 00 59.0 +36 47 51   0.08822 1.0737   160.5    17.9    21.9
    2013 11 12    03 04 19.1 +36 46 16   0.09478 1.0798   160.8    17.5    22.1
    2013 11 13    03 07 13.5 +36 43 51   0.1014  1.0861   161.1    17.1    22.2
    ...
    2013 11 19    03 18 58.8 +36 19 01   0.1423  1.1249   162.6    15.2    23.0
    ...
    2013 11 27    03 27 27.0 +35 32 47   0.2006  1.1798   162.7    14.4    23.8
    ...
    2013 12 12    03 38 26.0 +33 57 33   0.3257  1.2890   156.0    18.1    25.2
    
    A. U. Tomatic                (C) Copyright 2013 MPC           M.P.E.C. 2013-V82
    

    Read MPEC 2013-V81 Read MPEC 2013-V83


    MPEC number:

    Enter an MPEC number in one of the following forms:

    • 1997-B01 (the full form)
    • J97B01 (the packed version of the full form)
    • B01 (the abbreviated form)